Location: Absher
(46.5583°N, 107.9840°W)
Time: 18:34:30
(UTC+00:00)

NOAA 18 - Visible Passes

Search period start: 28 March 2023 00:00
Search period end: 07 April 2023 00:00
Orbit: 840 x 859 km, 98.9° (Epoch: 28 March)

Date Brightness Start Highest point End Pass type
(mag) Time Alt. Az. Time Alt. Az. Time Alt. Az.
28 Mar 7.0 03:15:11 15° ENE 03:16:04 15° NE 03:19:11 10° NNE visible
28 Mar 5.7 04:57:09 56° N 04:57:09 56° N 05:01:29 10° NNW visible
28 Mar 7.7 06:39:07 13° WNW 06:39:07 13° WNW 06:40:25 10° NW visible
29 Mar 7.1 03:02:44 12° ENE 03:04:04 13° NE 03:06:20 10° NNE visible
29 Mar 5.6 04:44:41 56° NNE 04:44:41 56° NNE 04:49:15 10° N visible
29 Mar 7.5 06:26:40 17° WNW 06:26:40 17° WNW 06:28:49 10° NW visible
30 Mar 7.3 02:51:41 10° NE 02:52:07 10° NE 02:52:33 10° NE visible
30 Mar 5.6 04:32:15 51° NE 04:32:15 51° NE 04:36:59 10° N visible
30 Mar 7.2 06:14:12 21° WNW 06:14:12 21° WNW 06:17:01 10° NW visible
31 Mar 5.8 04:19:48 43° ENE 04:19:48 43° ENE 04:24:42 10° N visible
31 Mar 6.9 06:01:46 26° WNW 06:01:46 26° WNW 06:05:07 10° NW visible
01 Apr 6.0 04:07:20 35° ENE 04:07:20 35° ENE 04:12:21 10° N visible
01 Apr 6.6 05:49:18 33° WNW 05:49:18 33° WNW 05:53:07 10° NNW visible
02 Apr 6.2 03:54:53 29° ENE 03:55:16 29° ENE 03:59:58 10° N visible
02 Apr 6.2 05:36:51 41° WNW 05:36:51 41° WNW 05:41:03 10° NNW visible
03 Apr 6.5 03:42:26 23° ENE 03:43:12 24° ENE 03:47:32 10° N visible
03 Apr 5.9 05:24:24 52° WNW 05:24:24 52° WNW 05:28:57 10° NNW visible
04 Apr 6.7 03:29:59 18° ENE 03:31:09 20° ENE 03:35:02 10° NNE visible
04 Apr 5.5 05:11:57 65° NW 05:11:57 65° NW 05:16:48 10° NNW visible
04 Apr 7.8 06:53:55 10° WNW 06:53:55 10° WNW 06:54:18 10° WNW visible
05 Apr 6.9 03:17:32 14° ENE 03:19:08 16° NE 03:22:25 10° NNE visible
05 Apr 5.3 04:59:30 75° N 04:59:30 75° N 05:04:36 10° NNW visible
05 Apr 7.6 06:41:28 14° WNW 06:41:28 14° WNW 06:43:21 10° NW visible
06 Apr 7.1 03:05:05 11° ENE 03:07:08 13° NE 03:09:37 10° NNE visible
06 Apr 5.2 04:47:03 70° NE 04:47:03 70° NE 04:52:22 10° N visible
06 Apr 7.3 06:29:01 18° WNW 06:29:01 18° WNW 06:31:48 10° NW visible
